Find Local Weather

World > North America > United States > California

Los Angeles, California Regional Weather

Lat: 34.04N, Lon: 118.3W
Wx Zone: CAZ041
Feedback
Expires:201812121800;;688011
ASUS46 KLOX 121713
RWRCA 

SOUTHERN CALIFORNIA WEATHER ROUNDUP
NATIONAL WEATHER SERVICE OXNARD CALIFORNIA
900 AM PST WED DEC 12 2018

NOTE: "FAIR" INDICATES FEW OR NO CLOUDS BELOW 12,000 FEET WITH NO 
SIGNIFICANT WEATHER AND/OR OBSTRUCTIONS TO VISIBILITY.

  -  STATIONS PRECEEDED BY AN ASTERISK (*) ARE NOT NWS OR FAA 
     STATIONS AND ARE NOT SUBJECT TO NWS AND FAA QUALITY CONTROL.


CAZ041-042-087-121800-
LA AND ORANGE COUNTY COASTAL AREAS

  
CITY           SKY/WX    TMP DP  RH WIND       PRES   REMARKS
L.A. DOWNTOWN  CLOUDY    58  49  72 E5        30.12R HAZE             
L.A. AIRPORT   PTSUNNY   59  51  75 NE8       30.12R FOG              
LONG BEACH     CLOUDY    57  52  83 E3        30.12R HAZE             

CITY           SKY/WX    TMP DP  RH WIND       PRES   REMARKS
FULLERTON      CLOUDY    58  49  72 E5        30.12R                  
*GETTY CENTER    N/A     50  50 100 NE3         N/A                   
HAWTHORNE      CLOUDY    59  53  80 VRB5      30.13R                  
*LOS ALAMITOS  CLOUDY    56  52  87 E6        30.12R FOG              
*REDONDO BEACH   N/A     56  53  89 CALM      30.11R                  
SANTA ANA      PTSUNNY   59  53  80 N5        30.12R HAZE             
STA MONICA APT CLOUDY    61  52  72 NE5       30.12R HAZE             
TORRANCE       PTSUNNY   55  52  88 CALM      30.12R FOG              
*UCLA            N/A     55  50  82 E2        30.09R                  

$$


SKY/WX - Weather  TMP - Temperature  DP - Dew Point  RH - Relative Humidity
WIND - Wind Direction/Speed PRES - Barometric Pressure